PTVZE GVAC-GCTS

Flight info

Callsign PTVZE
Flight time 1h 42m
Altitude 45000
Route DIMKI1A DIMKI B623 IPERA N873 LIMAL T770 URQUI
Aircraft C750/M-SBDE3FGHRWXY/S

Departure

Time 2026-04-26 15:48
Airport Amílcar Cabral International Airport (GVAC)

Arrival

Time 2026-04-26 17:30
Airport Tenerife Sur Airport (GCTS)
Time Latitude Longitude Altitude Speed Heading
2026-04-26 15:23 16.73560 -22.94494 197 ft 0 kts 90°
2026-04-26 15:35 16.73564 -22.94493 197 ft 2 kts 27°
2026-04-26 15:36 16.73562 -22.94508 197 ft 4 kts 237°
2026-04-26 15:36 16.73559 -22.94559 197 ft 8 kts 272°
2026-04-26 15:36 16.73561 -22.94600 197 ft 1 kts 298°
2026-04-26 15:36 16.73565 -22.94600 197 ft 1 kts 338°
2026-04-26 15:37 16.73577 -22.94600 204 ft 5 kts 353°
2026-04-26 15:37 16.73595 -22.94601 197 ft 7 kts 15°
2026-04-26 15:37 16.73597 -22.94591 202 ft 1 kts 155°
2026-04-26 15:37 16.73470 -22.94595 204 ft 22 kts 179°
2026-04-26 15:38 16.73448 -22.94595 202 ft 0 kts 180°
2026-04-26 15:42 16.73403 -22.94595 197 ft 8 kts 180°
2026-04-26 15:42 16.73346 -22.94595 197 ft 8 kts 180°
2026-04-26 15:43 16.73282 -22.94595 197 ft 9 kts 179°
2026-04-26 15:43 16.73244 -22.94594 197 ft 0 kts 180°
2026-04-26 15:44 16.73243 -22.94594 197 ft 1 kts 180°
2026-04-26 15:44 16.73187 -22.94594 201 ft 11 kts 179°
2026-04-26 15:44 16.73107 -22.94595 197 ft 9 kts 188°
2026-04-26 15:45 16.73030 -22.94686 196 ft 8 kts 209°
2026-04-26 15:45 16.72969 -22.94691 192 ft 12 kts 182°
2026-04-26 15:46 16.72729 -22.94689 191 ft 12 kts 178°
2026-04-26 15:46 16.72688 -22.94689 184 ft 7 kts 179°
2026-04-26 15:46 16.72592 -22.94690 181 ft 20 kts 181°
2026-04-26 15:46 16.72489 -22.94688 179 ft 19 kts 177°
2026-04-26 15:47 16.72407 -22.94753 180 ft 8 kts 269°
2026-04-26 15:47 16.72406 -22.94844 182 ft 7 kts 270°
2026-04-26 15:47 16.72432 -22.94892 184 ft 7 kts 23°
2026-04-26 15:48 16.72544 -22.94887 184 ft 41 kts
2026-04-26 15:48 16.73213 -22.94888 222 ft 134 kts
2026-04-26 15:48 16.74164 -22.94882 885 ft 133 kts
2026-04-26 15:48 16.74944 -22.94815 2084 ft 94 kts 12°
2026-04-26 15:49 16.75613 -22.94811 2830 ft 108 kts 356°
2026-04-26 15:49 16.76450 -22.94890 3272 ft 135 kts
2026-04-26 15:49 16.77481 -22.94922 3648 ft 162 kts 359°
2026-04-26 15:49 16.78672 -22.94939 4195 ft 176 kts 358°
2026-04-26 15:50 16.79983 -22.94949 4639 ft 204 kts 356°
2026-04-26 15:50 16.81484 -22.94960 5157 ft 229 kts 356°
2026-04-26 15:50 16.83162 -22.94971 5642 ft 254 kts 355°
2026-04-26 15:50 16.85012 -22.94982 6149 ft 275 kts 355°
2026-04-26 15:51 16.86940 -22.94990 7056 ft 278 kts 355°
2026-04-26 15:51 16.88899 -22.95003 7982 ft 284 kts 354°
2026-04-26 15:51 16.90897 -22.95003 8956 ft 291 kts 356°
2026-04-26 15:51 16.92906 -22.94416 9759 ft 311 kts 24°
2026-04-26 15:52 16.94745 -22.93172 10488 ft 324 kts 31°
2026-04-26 15:52 16.96659 -22.91763 10738 ft 350 kts 32°
2026-04-26 15:52 16.98725 -22.90247 10877 ft 375 kts 32°
2026-04-26 15:52 17.00161 -22.89214 11293 ft 379 kts 31°
2026-04-26 15:53 17.03071 -22.87127 12393 ft 380 kts 32°
2026-04-26 15:53 17.04516 -22.86082 12881 ft 383 kts 32°
2026-04-26 15:53 17.06706 -22.84495 13642 ft 386 kts 32°
2026-04-26 15:53 17.09677 -22.82348 14520 ft 390 kts 31°
2026-04-26 15:54 17.11908 -22.80738 15157 ft 393 kts 31°
2026-04-26 15:54 17.13411 -22.79652 15598 ft 395 kts 31°
2026-04-26 15:54 17.15686 -22.78006 16236 ft 399 kts 31°
2026-04-26 15:54 17.17977 -22.76349 16883 ft 403 kts 31°
2026-04-26 15:55 17.20296 -22.74672 17567 ft 406 kts 31°
2026-04-26 15:55 17.22628 -22.72984 18269 ft 410 kts 31°
2026-04-26 15:55 17.24981 -22.71281 18893 ft 413 kts 30°
2026-04-26 15:55 17.27349 -22.69565 19576 ft 415 kts 30°
2026-04-26 15:56 17.29728 -22.67842 20263 ft 417 kts 30°
2026-04-26 15:56 17.32125 -22.66106 20953 ft 420 kts 30°
2026-04-26 15:56 17.34540 -22.64355 21642 ft 423 kts 30°
2026-04-26 15:56 17.36959 -22.62601 22324 ft 426 kts 30°
2026-04-26 15:57 17.39403 -22.60829 23010 ft 428 kts 30°
2026-04-26 15:57 17.41866 -22.59042 23667 ft 431 kts 30°
2026-04-26 15:57 17.44341 -22.57245 24214 ft 435 kts 29°
2026-04-26 15:57 17.45989 -22.56049 24546 ft 438 kts 29°
2026-04-26 15:58 17.49340 -22.53617 25226 ft 444 kts 28°
2026-04-26 15:58 17.51893 -22.51761 25723 ft 449 kts 28°
2026-04-26 15:58 17.54473 -22.49886 26222 ft 453 kts 28°
2026-04-26 15:58 17.57075 -22.47995 26725 ft 458 kts 28°
2026-04-26 15:59 17.59708 -22.46080 27227 ft 463 kts 28°
2026-04-26 15:59 17.62368 -22.44145 27678 ft 468 kts 28°
2026-04-26 15:59 17.65063 -22.42184 28176 ft 473 kts 28°
2026-04-26 15:59 17.67776 -22.40206 28678 ft 477 kts 28°
2026-04-26 16:00 17.70517 -22.38210 29147 ft 481 kts 27°
2026-04-26 16:00 17.73279 -22.36199 29613 ft 486 kts 27°
2026-04-26 16:00 17.76068 -22.34166 30060 ft 490 kts 27°
2026-04-26 16:00 17.78880 -22.32115 30472 ft 494 kts 27°
2026-04-26 16:01 17.81702 -22.30055 30888 ft 496 kts 27°
2026-04-26 16:01 17.84539 -22.27984 31400 ft 496 kts 27°
2026-04-26 16:01 17.87368 -22.25916 31956 ft 495 kts 27°
2026-04-26 16:01 17.90238 -22.23962 32424 ft 490 kts 22°
2026-04-26 16:02 17.93190 -22.22180 32945 ft 489 kts 22°
2026-04-26 16:02 17.96131 -22.20369 33494 ft 489 kts 23°
2026-04-26 16:02 17.99062 -22.18543 34029 ft 489 kts 23°
2026-04-26 16:02 18.01000 -22.17345 34339 ft 488 kts 22°
2026-04-26 16:03 18.04888 -22.14967 35022 ft 487 kts 22°
2026-04-26 16:03 18.07803 -22.13176 35546 ft 485 kts 22°
2026-04-26 16:03 18.10718 -22.11372 36077 ft 484 kts 22°
2026-04-26 16:03 18.13613 -22.09583 36637 ft 483 kts 22°
2026-04-26 16:04 18.16506 -22.07803 37198 ft 481 kts 21°
2026-04-26 16:04 18.19396 -22.06024 37754 ft 480 kts 21°
2026-04-26 16:04 18.22269 -22.04249 38323 ft 479 kts 21°
2026-04-26 16:04 18.25135 -22.02477 38863 ft 478 kts 21°
2026-04-26 16:05 18.27995 -22.00712 39349 ft 476 kts 21°
2026-04-26 16:05 18.30849 -21.98950 39845 ft 475 kts 21°
2026-04-26 16:05 18.33695 -21.97190 40345 ft 474 kts 21°
2026-04-26 16:05 18.36538 -21.95432 40831 ft 473 kts 21°
2026-04-26 16:06 18.39371 -21.93680 41305 ft 472 kts 21°
2026-04-26 16:06 18.42198 -21.91930 41764 ft 471 kts 21°
2026-04-26 16:06 18.45022 -21.90182 42209 ft 470 kts 21°
2026-04-26 16:06 18.47840 -21.88437 42673 ft 469 kts 21°
2026-04-26 16:07 18.50650 -21.86697 43080 ft 468 kts 21°
2026-04-26 16:07 18.53454 -21.84958 43482 ft 467 kts 21°
2026-04-26 16:07 18.56247 -21.83227 43869 ft 467 kts 21°
2026-04-26 16:07 18.59050 -21.81488 44246 ft 466 kts 21°
2026-04-26 16:08 18.61836 -21.79760 44606 ft 466 kts 21°
2026-04-26 16:08 18.64623 -21.78030 44876 ft 463 kts 21°
2026-04-26 16:08 18.67401 -21.76304 45005 ft 466 kts 21°
2026-04-26 16:09 18.73072 -21.72790 45006 ft 479 kts 22°
2026-04-26 16:09 18.78886 -21.69168 45020 ft 491 kts 22°
2026-04-26 16:10 18.84850 -21.65461 45017 ft 504 kts 22°
2026-04-26 16:10 18.90947 -21.61658 45021 ft 512 kts 22°
2026-04-26 16:11 18.97081 -21.57833 45013 ft 511 kts 22°
2026-04-26 16:11 19.03158 -21.54043 45017 ft 511 kts 22°
2026-04-26 16:12 19.09279 -21.50220 45012 ft 511 kts 22°
2026-04-26 16:12 19.18465 -21.44479 45006 ft 514 kts 22°
2026-04-26 16:13 19.24604 -21.40634 45009 ft 512 kts 22°
2026-04-26 16:13 19.30746 -21.36790 45014 ft 513 kts 22°
2026-04-26 16:14 19.36887 -21.32938 45014 ft 513 kts 22°
2026-04-26 16:15 19.46095 -21.27159 45012 ft 513 kts 22°
2026-04-26 16:15 19.52236 -21.23301 45015 ft 514 kts 22°
2026-04-26 16:16 19.61440 -21.17512 45012 ft 515 kts 22°
2026-04-26 16:16 19.67671 -21.13593 45024 ft 526 kts 22°
2026-04-26 16:17 19.74011 -21.09592 45016 ft 533 kts 22°
2026-04-26 16:17 19.80376 -21.05574 45019 ft 531 kts 22°
2026-04-26 16:18 19.89886 -20.99569 45013 ft 533 kts 22°
2026-04-26 16:19 19.99448 -20.93522 45018 ft 533 kts 22°
2026-04-26 16:20 20.09010 -20.87464 45019 ft 533 kts 22°
2026-04-26 16:20 20.18565 -20.81402 45025 ft 533 kts 22°
2026-04-26 16:21 20.24966 -20.77341 45012 ft 538 kts 22°
2026-04-26 16:21 20.31379 -20.73257 45018 ft 536 kts 22°
2026-04-26 16:22 20.37791 -20.69182 45021 ft 536 kts 22°
2026-04-26 16:22 20.44194 -20.65088 45019 ft 537 kts 23°
2026-04-26 16:23 20.50561 -20.61022 45013 ft 537 kts 22°
2026-04-26 16:23 20.57031 -20.56885 45016 ft 541 kts 23°
2026-04-26 16:24 20.63471 -20.52756 45017 ft 539 kts 23°
2026-04-26 16:24 20.69872 -20.48658 45019 ft 540 kts 23°
2026-04-26 16:25 20.76328 -20.44515 45015 ft 544 kts 23°
2026-04-26 16:25 20.82819 -20.40343 45021 ft 543 kts 23°
2026-04-26 16:26 20.88234 -20.36864 45031 ft 545 kts 23°
2026-04-26 16:26 20.95797 -20.31995 45018 ft 544 kts 23°
2026-04-26 16:27 21.02286 -20.27818 45018 ft 545 kts 23°
2026-04-26 16:27 21.08780 -20.23628 45020 ft 545 kts 23°
2026-04-26 16:28 21.15267 -20.19441 45019 ft 545 kts 23°
2026-04-26 16:28 21.21767 -20.15240 45040 ft 545 kts 23°
2026-04-26 16:29 21.28273 -20.11033 45018 ft 547 kts 23°
2026-04-26 16:29 21.34788 -20.06811 45019 ft 547 kts 23°
2026-04-26 16:30 21.41298 -20.02593 45019 ft 547 kts 23°
2026-04-26 16:30 21.47812 -19.98365 45022 ft 547 kts 23°
2026-04-26 16:31 21.54311 -19.94143 45020 ft 547 kts 23°
2026-04-26 16:31 21.60816 -19.89911 45015 ft 544 kts 24°
2026-04-26 16:32 21.66197 -19.86412 45016 ft 545 kts 23°
2026-04-26 16:32 21.73789 -19.81462 45020 ft 546 kts 24°
2026-04-26 16:33 21.80293 -19.77222 45019 ft 548 kts 24°
2026-04-26 16:33 21.86807 -19.72964 45019 ft 547 kts 24°
2026-04-26 16:34 21.93279 -19.68735 45017 ft 547 kts 24°
2026-04-26 16:34 21.99817 -19.64455 45014 ft 547 kts 24°
2026-04-26 16:35 22.06322 -19.60193 45015 ft 547 kts 24°
2026-04-26 16:35 22.12824 -19.55928 45016 ft 547 kts 24°
2026-04-26 16:36 22.19331 -19.51654 45017 ft 547 kts 24°
2026-04-26 16:36 22.25796 -19.47404 45013 ft 548 kts 24°
2026-04-26 16:37 22.32294 -19.43126 45023 ft 548 kts 24°
2026-04-26 16:37 22.37721 -19.39552 45025 ft 549 kts 24°
2026-04-26 16:38 22.45332 -19.34530 45024 ft 548 kts 24°
2026-04-26 16:38 22.51848 -19.30228 45025 ft 549 kts 24°
2026-04-26 16:39 22.58364 -19.25920 45022 ft 550 kts 25°
2026-04-26 16:39 22.64880 -19.21605 45012 ft 548 kts 25°
2026-04-26 16:40 22.70282 -19.18029 45023 ft 548 kts 25°
2026-04-26 16:40 22.76788 -19.13712 45022 ft 548 kts 25°
2026-04-26 16:41 22.84361 -19.08685 45016 ft 549 kts 25°
2026-04-26 16:41 22.90866 -19.04358 45017 ft 550 kts 25°
2026-04-26 16:42 22.96314 -19.00733 45021 ft 548 kts 25°
2026-04-26 16:42 23.02821 -18.96399 45019 ft 548 kts 25°
2026-04-26 16:43 23.09325 -18.92059 45019 ft 549 kts 25°
2026-04-26 16:43 23.15784 -18.87746 45020 ft 548 kts 25°
2026-04-26 16:44 23.22284 -18.83400 45046 ft 548 kts 25°
2026-04-26 16:44 23.28772 -18.79057 45014 ft 547 kts 25°
2026-04-26 16:45 23.35251 -18.74717 45011 ft 547 kts 25°
2026-04-26 16:45 23.41738 -18.70363 45012 ft 547 kts 25°
2026-04-26 16:46 23.48225 -18.66008 45015 ft 547 kts 25°
2026-04-26 16:46 23.54708 -18.61647 45016 ft 547 kts 25°
2026-04-26 16:47 23.61186 -18.57286 45015 ft 547 kts 25°
2026-04-26 16:47 23.67662 -18.52921 45018 ft 547 kts 25°
2026-04-26 16:48 23.74144 -18.48547 45015 ft 547 kts 25°
2026-04-26 16:48 23.80619 -18.44172 45024 ft 547 kts 25°
2026-04-26 16:49 23.87057 -18.39817 45015 ft 547 kts 25°
2026-04-26 16:49 23.93511 -18.35445 45017 ft 545 kts 26°
2026-04-26 16:50 23.99950 -18.31081 45013 ft 545 kts 25°
2026-04-26 16:50 24.06397 -18.26703 45016 ft 545 kts 26°
2026-04-26 16:51 24.12848 -18.22320 45015 ft 545 kts 26°
2026-04-26 16:51 24.19287 -18.17937 45021 ft 545 kts 26°
2026-04-26 16:52 24.24638 -18.14292 45019 ft 544 kts 26°
2026-04-26 16:52 24.32128 -18.09183 45020 ft 542 kts 26°
2026-04-26 16:53 24.38548 -18.04800 45022 ft 543 kts 26°
2026-04-26 16:53 24.44966 -18.00410 45014 ft 543 kts 26°
2026-04-26 16:54 24.51376 -17.96022 45019 ft 543 kts 26°
2026-04-26 16:54 24.57784 -17.91629 45024 ft 542 kts 26°
2026-04-26 16:55 24.64168 -17.87248 45009 ft 540 kts 26°
2026-04-26 16:55 24.70550 -17.82864 45013 ft 541 kts 26°
2026-04-26 16:56 24.80127 -17.76273 45013 ft 541 kts 26°
2026-04-26 16:57 24.86521 -17.71866 45020 ft 544 kts 26°
2026-04-26 16:57 24.96088 -17.65260 45012 ft 542 kts 26°
2026-04-26 16:58 25.01650 -17.62105 45003 ft 532 kts 14°
2026-04-26 16:59 25.13399 -17.58516 45020 ft 528 kts 10°
2026-04-26 17:00 25.27534 -17.54185 45012 ft 526 kts
2026-04-26 17:00 25.37778 -17.51029 45025 ft 526 kts
2026-04-26 17:01 25.44845 -17.48874 45028 ft 527 kts
2026-04-26 17:01 25.51915 -17.46698 45020 ft 528 kts
2026-04-26 17:02 25.58979 -17.44535 45020 ft 526 kts
2026-04-26 17:02 25.66040 -17.42363 45020 ft 527 kts
2026-04-26 17:03 25.73102 -17.40191 45021 ft 527 kts
2026-04-26 17:03 25.80195 -17.38008 45023 ft 532 kts 10°
2026-04-26 17:04 25.87321 -17.35805 45024 ft 530 kts 10°
2026-04-26 17:04 25.94372 -17.33631 45022 ft 530 kts 10°
2026-04-26 17:05 26.01421 -17.31446 44218 ft 518 kts 10°
2026-04-26 17:05 26.04844 -17.30382 43549 ft 504 kts 10°
2026-04-26 17:05 26.08190 -17.29348 42893 ft 492 kts
2026-04-26 17:06 26.11448 -17.28341 42286 ft 481 kts 10°
2026-04-26 17:06 26.14642 -17.27351 41640 ft 472 kts 10°
2026-04-26 17:06 26.17774 -17.26378 41025 ft 463 kts
2026-04-26 17:06 26.20860 -17.25422 40416 ft 459 kts
2026-04-26 17:07 26.23932 -17.24471 39813 ft 458 kts
2026-04-26 17:07 26.27012 -17.23515 39214 ft 461 kts
2026-04-26 17:07 26.30120 -17.22550 38589 ft 467 kts
2026-04-26 17:07 26.33260 -17.21573 37932 ft 470 kts 10°
2026-04-26 17:08 26.36427 -17.20585 37308 ft 473 kts 10°
2026-04-26 17:08 26.39599 -17.19597 36681 ft 476 kts 10°
2026-04-26 17:08 26.42799 -17.18601 36077 ft 477 kts 11°
2026-04-26 17:08 26.45999 -17.17603 35426 ft 479 kts 11°
2026-04-26 17:09 26.49221 -17.16597 34793 ft 481 kts 11°
2026-04-26 17:09 26.51356 -17.15930 34374 ft 482 kts 12°
2026-04-26 17:09 26.55685 -17.14579 33490 ft 484 kts 12°
2026-04-26 17:09 26.58924 -17.13565 32848 ft 483 kts 12°
2026-04-26 17:10 26.62124 -17.12564 32224 ft 483 kts 12°
2026-04-26 17:10 26.65356 -17.11554 31589 ft 483 kts 13°
2026-04-26 17:10 26.68593 -17.10541 30954 ft 482 kts 13°
2026-04-26 17:10 26.71826 -17.09528 30319 ft 482 kts 13°
2026-04-26 17:11 26.75038 -17.08519 29642 ft 475 kts 13°
2026-04-26 17:11 26.78194 -17.07529 29030 ft 468 kts 13°
2026-04-26 17:11 26.81318 -17.06549 28421 ft 464 kts 13°
2026-04-26 17:11 26.84412 -17.05579 27819 ft 460 kts 13°
2026-04-26 17:12 26.90511 -17.03571 26618 ft 454 kts 18°
2026-04-26 17:12 26.93460 -17.02365 26042 ft 450 kts 18°
2026-04-26 17:13 26.99300 -17.00068 24889 ft 440 kts 18°
2026-04-26 17:13 27.02169 -16.98912 24328 ft 435 kts 19°
2026-04-26 17:13 27.07814 -16.96638 23158 ft 427 kts 19°
2026-04-26 17:14 27.10596 -16.95529 22606 ft 423 kts 18°
2026-04-26 17:14 27.16105 -16.93313 21506 ft 417 kts 19°
2026-04-26 17:14 27.18831 -16.92217 20963 ft 414 kts 19°
2026-04-26 17:15 27.24218 -16.90054 19886 ft 408 kts 19°
2026-04-26 17:15 27.26879 -16.88982 19354 ft 405 kts 19°
2026-04-26 17:15 27.29521 -16.87917 18824 ft 402 kts 19°
2026-04-26 17:16 27.32139 -16.86863 18305 ft 398 kts 19°
2026-04-26 17:16 27.34739 -16.85815 17748 ft 394 kts 19°
2026-04-26 17:16 27.37308 -16.84779 17244 ft 391 kts 19°
2026-04-26 17:16 27.39872 -16.83744 16723 ft 389 kts 19°
2026-04-26 17:17 27.42399 -16.82724 16221 ft 386 kts 19°
2026-04-26 17:17 27.44928 -16.81703 15702 ft 383 kts 19°
2026-04-26 17:17 27.47422 -16.80695 15213 ft 380 kts 19°
2026-04-26 17:17 27.49860 -16.79709 14731 ft 361 kts 19°
2026-04-26 17:18 27.52142 -16.78785 14296 ft 339 kts 19°
2026-04-26 17:18 27.54302 -16.77911 13852 ft 322 kts 19°
2026-04-26 17:18 27.56362 -16.77078 13398 ft 307 kts 19°
2026-04-26 17:18 27.58327 -16.76283 12991 ft 293 kts 19°
2026-04-26 17:19 27.62015 -16.74788 12251 ft 271 kts 19°
2026-04-26 17:19 27.63771 -16.74076 11909 ft 265 kts 18°
2026-04-26 17:19 27.65498 -16.73377 11569 ft 263 kts 18°
2026-04-26 17:20 27.67217 -16.72680 11235 ft 263 kts 18°
2026-04-26 17:20 27.67801 -16.72443 11124 ft 263 kts 18°
2026-04-26 17:20 27.70651 -16.71286 10567 ft 262 kts 18°
2026-04-26 17:20 27.72381 -16.70689 10199 ft 259 kts
2026-04-26 17:21 27.74139 -16.70942 9831 ft 254 kts 338°
2026-04-26 17:21 27.75582 -16.72018 9526 ft 247 kts 317°
2026-04-26 17:21 27.76833 -16.73343 9249 ft 247 kts 316°
2026-04-26 17:21 27.78095 -16.74676 8936 ft 249 kts 316°
2026-04-26 17:22 27.79364 -16.76005 8608 ft 248 kts 317°
2026-04-26 17:22 27.80627 -16.77331 8290 ft 248 kts 317°
2026-04-26 17:22 27.81889 -16.78659 7966 ft 247 kts 317°
2026-04-26 17:22 27.83125 -16.79959 7650 ft 245 kts 317°
2026-04-26 17:23 27.84380 -16.81249 7327 ft 246 kts 322°
2026-04-26 17:23 27.85905 -16.82225 7064 ft 240 kts 336°
2026-04-26 17:23 27.87377 -16.82940 6856 ft 225 kts 338°
2026-04-26 17:23 27.88796 -16.83686 6644 ft 225 kts 334°
2026-04-26 17:24 27.90187 -16.84518 6448 ft 228 kts 332°
2026-04-26 17:24 27.91616 -16.85261 6206 ft 225 kts 347°
2026-04-26 17:24 27.93155 -16.85154 5902 ft 223 kts 18°
2026-04-26 17:24 27.94047 -16.84615 5717 ft 220 kts 37°
2026-04-26 17:25 27.94972 -16.83249 5469 ft 221 kts 62°
2026-04-26 17:25 27.95812 -16.81161 5274 ft 221 kts 64°
2026-04-26 17:25 27.96451 -16.79590 4935 ft 212 kts 64°
2026-04-26 17:25 27.97076 -16.78073 4109 ft 219 kts 64°
2026-04-26 17:26 27.97510 -16.77018 3674 ft 218 kts 63°
2026-04-26 17:26 27.98078 -16.75441 3011 ft 215 kts 68°
2026-04-26 17:26 27.98834 -16.73307 2425 ft 213 kts 64°
2026-04-26 17:26 27.99203 -16.72305 2418 ft 197 kts 66°
2026-04-26 17:27 27.99670 -16.70964 2409 ft 172 kts 66°
2026-04-26 17:27 28.00101 -16.69719 2248 ft 169 kts 65°
2026-04-26 17:27 28.00515 -16.68527 1997 ft 157 kts 66°
2026-04-26 17:27 28.00908 -16.67411 1802 ft 143 kts 66°
2026-04-26 17:28 28.01236 -16.66462 1634 ft 123 kts 66°
2026-04-26 17:28 28.01544 -16.65575 1464 ft 118 kts 68°
2026-04-26 17:28 28.01847 -16.64719 1321 ft 118 kts 66°
2026-04-26 17:28 28.02142 -16.63866 1173 ft 113 kts 69°
2026-04-26 17:29 28.02430 -16.63037 1015 ft 116 kts 69°
2026-04-26 17:29 28.02632 -16.62468 892 ft 116 kts 69°
2026-04-26 17:29 28.03056 -16.61369 622 ft 109 kts 72°
2026-04-26 17:29 28.03305 -16.60569 477 ft 110 kts 74°
2026-04-26 17:30 28.03569 -16.59758 388 ft 108 kts 71°
2026-04-26 17:30 28.03852 -16.58970 295 ft 107 kts 73°
2026-04-26 17:30 28.04118 -16.58198 191 ft 99 kts 72°
2026-04-26 17:30 28.04305 -16.57663 187 ft 43 kts 69°
2026-04-26 17:31 28.04404 -16.57371 192 ft 37 kts 68°
2026-04-26 17:31 28.04489 -16.57131 194 ft 22 kts 65°
2026-04-26 17:31 28.04569 -16.56998 196 ft 19 kts 53°
2026-04-26 17:31 28.04640 -16.56898 203 ft 11 kts 43°
2026-04-26 17:32 28.04676 -16.56853 207 ft 4 kts 49°
2026-04-26 17:32 28.04682 -16.56844 212 ft 0 kts 49°
2026-04-26 17:32 28.04686 -16.56839 213 ft 6 kts 49°
2026-04-26 17:32 28.04745 -16.56803 215 ft 8 kts 339°
2026-04-26 17:33 28.04772 -16.56872 216 ft 14 kts 249°
2026-04-26 17:33 28.04734 -16.56980 217 ft 14 kts 248°
2026-04-26 17:33 28.04701 -16.57079 219 ft 13 kts 249°
2026-04-26 17:34 28.04754 -16.57174 220 ft 6 kts 337°
2026-04-26 17:34 28.04781 -16.57200 221 ft 5 kts 295°
2026-04-26 17:34 28.04775 -16.57249 221 ft 9 kts 248°
2026-04-26 17:34 28.04747 -16.57329 221 ft 12 kts 249°
2026-04-26 17:35 28.04717 -16.57415 221 ft 7 kts 249°
2026-04-26 17:35 28.04734 -16.57432 222 ft 6 kts 339°
2026-04-26 17:35 28.04770 -16.57447 222 ft 5 kts 338°
2026-04-26 17:35 28.04793 -16.57457 222 ft 2 kts 338°
2026-04-26 17:36 28.04798 -16.57459 222 ft 0 kts 339°